Allentown, PA

6:31 AM EST on December 07, 2019 (GMT -0500)
Allentown

Weather History for KXLL - May, 2019

Change the Weather History Date:

Wednesday, May 1, 2019

  Actual Average (WUND) Record (WUND)
Temperature  
Mean Temperature 54 °F -  
Max Temperature 57 °F - - (-1)
Min Temperature 51 °F - - (-1)
Degree Days  
Heating Degree Days 11    
Growing Degree Days 4 (Base 50)    
Moisture  
Dew Point 48 °F    
Average Humidity 80    
Maximum Humidity 100    
Minimum Humidity 67    
Precipitation  
Precipitation 0.00 in - - ()
Sea Level Pressure  
Sea Level Pressure 30.34 in    
Wind  
Wind Speed 8 mph (ESE)    
Max Wind Speed 14 mph    
Max Gust Speed 17 mph    
Visibility 10 miles    
Events      
Averages and records for this station are not official NWS values.
T = Trace of Precipitation, MM = Missing Value Source: NWS Daily Summary

Daily Weather History Graph

Daily Weather History Graph

Search for Another Location

Airport or City:

Astronomy

May. 01, 2019 Rise Set
Actual Time 6:01 AM EDT 7:57 PM EDT
Civil Twilight 5:31 AM EDT 8:27 PM EDT
Nautical Twilight 4:55 AM EDT 9:03 PM EDT
Astronomical Twilight 4:16 AM EDT 9:42 PM EDT
Moon 4:46 AM EDT (5/1) 4:42 PM EDT (5/1)
Length of Visible Light 14h 55m
Length of Day
13h 56m
Waning Crescent, 11% of the Moon is Illuminated
May 1
Waning Crescent
May 4
New
May 11
First Quarter
May 18
Full
May 26
Last Quarter

Hourly Weather History & Observations

Time (EDT) Temp. Dew Point Humidity Pressure Visibility Wind Dir Wind Speed Gust Speed Precip Events Conditions
12:15 AM 55.4 °F 44.6 °F 67% 30.39 in 10.0 mi ENE 8.1 mph - N/A   Overcast
12:35 AM 55.4 °F 44.6 °F 67% 30.39 in 10.0 mi ENE 8.1 mph - N/A   Overcast
12:55 AM 55.4 °F 44.6 °F 67% 30.39 in 10.0 mi ENE 6.9 mph - N/A   Overcast
1:15 AM 55.4 °F 46.4 °F 72% 30.38 in 10.0 mi ENE 8.1 mph - N/A   Overcast
1:35 AM 55.4 °F 50.0 °F 82% 30.38 in 10.0 mi ESE 11.5 mph - N/A   Overcast
1:55 AM 55.4 °F 50.0 °F 82% 30.38 in 10.0 mi ESE 9.2 mph - N/A   Overcast
2:15 AM 55.4 °F 48.2 °F 77% 30.37 in 10.0 mi East 13.8 mph 17.3 mph N/A   Overcast
2:35 AM 53.6 °F 46.4 °F 77% 30.38 in 10.0 mi ESE 10.4 mph 16.1 mph N/A   Overcast
2:55 AM 53.6 °F 46.4 °F 77% 30.37 in 10.0 mi East 9.2 mph - N/A   Overcast
3:15 AM 53.6 °F 44.6 °F 72% 30.37 in 10.0 mi East 9.2 mph 16.1 mph N/A   Overcast
3:35 AM 53.6 °F 44.6 °F 72% 30.37 in 10.0 mi ESE 8.1 mph - N/A   Overcast
3:55 AM 53.6 °F 44.6 °F 72% 30.38 in 10.0 mi ESE 4.6 mph - N/A   Overcast
4:15 AM 53.6 °F 44.6 °F 72% 30.39 in 10.0 mi ESE 6.9 mph - N/A   Overcast
4:35 AM 53.6 °F 46.4 °F 77% 30.39 in 10.0 mi East 5.8 mph - N/A   Overcast
4:55 AM 53.6 °F 46.4 °F 77% 30.38 in 10.0 mi ESE 5.8 mph - N/A   Overcast
5:15 AM 53.6 °F 46.4 °F 77% 30.39 in 10.0 mi East 6.9 mph - N/A   Overcast
5:35 AM 53.6 °F 46.4 °F 77% 30.40 in 10.0 mi East 5.8 mph 9.2 mph N/A   Overcast
5:55 AM 53.6 °F 46.4 °F 77% 30.40 in 10.0 mi ESE 5.8 mph - N/A   Overcast
6:15 AM 53.6 °F 46.4 °F 77% 30.40 in 10.0 mi ESE 6.9 mph - N/A   Overcast
6:35 AM 53.6 °F 46.4 °F 77% 30.41 in 10.0 mi East 3.5 mph - N/A   Overcast
6:55 AM 53.6 °F 46.4 °F 77% 30.41 in 10.0 mi East 6.9 mph - N/A   Overcast
7:15 AM 53.6 °F 46.4 °F 77% 30.41 in 10.0 mi East 6.9 mph - N/A   Overcast
7:35 AM 53.6 °F 46.4 °F 77% 30.41 in 10.0 mi East 8.1 mph - N/A   Overcast
7:55 AM 53.6 °F 46.4 °F 77% 30.42 in 10.0 mi ESE 5.8 mph - N/A   Overcast
8:15 AM 53.6 °F 46.4 °F 77% 30.42 in 10.0 mi ESE 5.8 mph - N/A   Overcast
8:35 AM 53.6 °F 46.4 °F 77% 30.42 in 10.0 mi ESE 11.5 mph - N/A   Overcast
8:55 AM 53.6 °F 46.4 °F 77% 30.42 in 10.0 mi SE 5.8 mph - N/A   Overcast
9:15 AM 53.6 °F 46.4 °F 77% 30.42 in 10.0 mi SE 4.6 mph - N/A   Overcast
9:35 AM 53.6 °F 46.4 °F 77% 30.42 in 10.0 mi ESE 8.1 mph - N/A   Overcast
9:55 AM 53.6 °F 44.6 °F 72% 30.41 in 10.0 mi SE 10.4 mph 16.1 mph N/A   Overcast
10:15 AM 55.4 °F 44.6 °F 67% 30.41 in 10.0 mi ESE 8.1 mph - N/A   Overcast
10:30 AM 55.4 °F 44.6 °F 67% 30.41 in 10.0 mi SE 8.1 mph - N/A   Overcast
10:55 AM 55.4 °F 44.6 °F 67% 30.40 in 10.0 mi East 8.1 mph 17.3 mph N/A   Overcast
11:15 AM 55.4 °F 44.6 °F 67% 30.40 in 10.0 mi East 11.5 mph - N/A   Overcast
11:35 AM 55.4 °F 46.4 °F 72% 30.40 in 10.0 mi ESE 6.9 mph - N/A   Overcast
11:55 AM 55.4 °F 46.4 °F 72% 30.39 in 10.0 mi ESE 8.1 mph - N/A   Overcast
12:15 PM 55.4 °F 46.4 °F 72% 30.38 in 10.0 mi SE 9.2 mph - N/A   Overcast
12:35 PM 55.4 °F 46.4 °F 72% 30.37 in 10.0 mi ESE 8.1 mph - N/A   Overcast
12:55 PM 55.4 °F 48.2 °F 77% 30.37 in 10.0 mi ESE 10.4 mph - N/A   Overcast
1:15 PM 55.4 °F 50.0 °F 82% 30.37 in 10.0 mi East 10.4 mph - N/A   Overcast
1:35 PM 55.4 °F 50.0 °F 82% - - North - - N/A   Unknown
1:55 PM 55.4 °F 50.0 °F 82% - - North - - N/A   Unknown
2:15 PM - - N/A% - - North - - N/A   Unknown
2:35 PM - - N/A% - - North - - N/A   Unknown
2:55 PM - - N/A% - - North - - N/A   Unknown
3:15 PM - - N/A% - - North - - N/A   Unknown
3:35 PM - - N/A% - - North - - N/A   Unknown
3:55 PM - - N/A% - - North - - N/A   Unknown
4:15 PM 57.2 °F 48.2 °F 72% 30.29 in 10.0 mi ESE 11.5 mph - N/A   Overcast
4:35 PM 57.2 °F 48.2 °F 72% 30.28 in 10.0 mi SSE 6.9 mph - N/A   Overcast
4:55 PM 57.2 °F 48.2 °F 72% 30.28 in 10.0 mi ESE 8.1 mph - N/A   Overcast
5:15 PM 57.2 °F 48.2 °F 72% 30.28 in 10.0 mi ESE 8.1 mph - N/A   Overcast
5:35 PM 55.4 °F 48.2 °F 77% 30.28 in 10.0 mi East 6.9 mph - N/A   Overcast
5:55 PM 55.4 °F 48.2 °F 77% 30.28 in 10.0 mi ESE 6.9 mph - N/A   Overcast
6:15 PM 55.4 °F 48.2 °F 77% 30.27 in 10.0 mi ESE 5.8 mph - N/A   Overcast
6:35 PM 55.4 °F 50.0 °F 82% 30.27 in 10.0 mi East 8.1 mph - N/A   Overcast
6:55 PM 55.4 °F 50.0 °F 82% 30.27 in 10.0 mi ESE 8.1 mph - N/A   Overcast
7:15 PM 53.6 °F 50.0 °F 88% 30.26 in 10.0 mi East 6.9 mph - N/A   Overcast
7:35 PM 53.6 °F 50.0 °F 88% 30.25 in 10.0 mi East 8.1 mph - N/A   Overcast
7:55 PM 53.6 °F 50.0 °F 88% 30.25 in 10.0 mi East 5.8 mph - N/A   Overcast
8:15 PM 53.6 °F 51.8 °F 94% 30.25 in 10.0 mi East 5.8 mph - N/A   Overcast
8:35 PM 51.8 °F 51.8 °F 100% 30.25 in 10.0 mi SE 4.6 mph - N/A   Overcast
8:55 PM 51.8 °F 51.8 °F 100% 30.24 in 10.0 mi ESE 5.8 mph - N/A   Overcast
9:15 PM 51.8 °F 51.8 °F 100% 30.24 in 10.0 mi ESE 3.5 mph - N/A   Overcast
9:35 PM 51.8 °F 51.8 °F 100% 30.23 in 10.0 mi SSE 6.9 mph - N/A   Overcast
9:55 PM 51.8 °F 51.8 °F 100% 30.23 in 10.0 mi ESE 4.6 mph - N/A   Overcast
10:15 PM 51.8 °F 51.8 °F 100% 30.22 in 10.0 mi ESE 3.5 mph - N/A   Overcast
10:35 PM 51.8 °F 51.8 °F 100% 30.23 in 7.0 mi East 4.6 mph - N/A   Overcast
10:55 PM 51.8 °F 51.8 °F 100% 30.22 in 7.0 mi East 3.5 mph - N/A   Overcast
11:15 PM 51.8 °F 50.0 °F 94% 30.22 in 7.0 mi East 3.5 mph - N/A   Overcast
11:35 PM 51.8 °F 50.0 °F 94% 30.21 in 10.0 mi Calm Calm - N/A   Overcast
11:55 PM 51.8 °F 51.8 °F 100% 30.20 in 10.0 mi Calm Calm - N/A   Overcast